DW6487 Weather Reports


time (UTC)temp
C
wind
direction
speed
KPH
gust
KPH
rain 1hr
cm
rain 24hr
cm
rain mn
cm
humidity
%
barometer
mb
20260505091559 6 187 0.0 0.0 0.00 0.03 0.00 85 1010.0
20260505090101 6 187 0.0 0.0 0.00 0.03 0.00 86 1009.8
20260505084600 6 187 0.0 0.0 0.00 0.05 0.00 86 1009.6
20260505083117 6 187 0.0 0.0 0.00 0.05 0.00 85 1009.4
20260505081559 6 187 0.0 0.0 0.00 0.05 0.00 85 1009.3
20260505080059 6 187 0.0 0.0 0.00 0.05 0.00 84 1009.0
20260505074559 7 187 0.0 0.0 0.00 0.05 0.00 83 1008.8
20260505073107 7 187 0.0 0.0 0.00 0.05 0.00 83 1008.6
20260505071601 7 187 0.0 0.0 0.00 0.05 0.00 83 1008.4
20260505070059 7 187 0.0 0.0 0.00 0.05 0.00 82 1008.1
20260505064604 7 187 0.0 0.0 0.00 0.08 0.00 82 1007.9
20260505063059 7 187 0.0 0.0 0.00 0.08 0.00 82 1007.5
20260505061600 7 187 0.0 0.0 0.00 0.08 0.00 81 1007.2
20260505060104 7 187 0.0 0.0 0.00 0.08 0.00 81 1007.0
20260505054606 7 187 0.0 0.0 0.00 0.08 0.00 81 1006.7
20260505053112 7 187 0.0 0.0 0.00 0.08 0.00 80 1006.6
20260505051559 7 187 0.0 0.0 0.00 0.08 0.00 80 1006.3
20260505041614 8 187 0.0 0.0 0.00 0.10 0.00 76 1005.7
20260505040059 8 187 0.0 0.0 0.00 0.10 0.00 76 1005.5
20260505034604 9 187 0.0 0.0 0.00 0.20 0.00 75 1005.1
20260505033059 9 187 0.0 0.0 0.00 0.20 0.00 75 1004.8
20260505031607 9 187 0.0 0.0 0.00 0.20 0.00 74 1004.4
20260505030059 10 187 0.0 0.0 0.00 0.20 0.00 73 1004.2
20260505024559 10 187 0.0 0.0 0.00 0.20 0.08 72 1004.0
20260505023104 10 187 0.0 0.0 0.00 0.20 0.08 71 1003.9
20260505021559 10 187 0.0 0.0 0.00 0.20 0.08 71 1003.7
20260505020059 9 187 0.0 0.0 0.00 0.20 0.08 71 1003.7
20260505014600 10 187 0.0 0.0 0.00 0.20 0.08 71 1003.6
20260505013102 10 187 0.0 0.0 0.00 0.20 0.08 71 1003.5
20260505011600 10 187 0.0 0.0 0.00 0.20 0.08 70 1003.4
20260505010059 10 187 0.0 0.0 0.00 0.20 0.08 68 1003.4
20260505004559 10 187 0.0 0.0 0.00 0.20 0.08 65 1003.4
20260505003059 10 187 0.0 0.0 0.00 0.20 0.08 64 1003.3
20260505001600 10 187 0.0 0.0 0.00 0.20 0.08 59 1002.9
20260505000108 10 187 0.0 0.0 0.00 0.20 0.08 59 1002.9
20260504234634 10 186 0.0 0.0 0.00 0.20 0.08 61 1002.5
20260504233103 10 187 0.0 0.0 0.00 0.20 0.08 61 1002.3
20260504231605 10 187 0.0 0.0 0.00 0.20 0.08 60 1002.1
20260504230100 10 187 0.0 0.0 0.00 0.20 0.08 58 1002.1
20260504224602 10 187 0.0 0.0 0.00 0.20 0.08 57 1002.1
20260504223059 10 187 0.0 0.0 0.00 0.20 0.08 56 1001.9
20260504221608 11 187 0.0 0.0 0.00 0.20 0.08 57 1001.6
20260504220059 11 187 0.0 0.0 0.00 0.20 0.08 55 1001.6
20260504214559 11 187 0.0 0.0 0.00 0.20 0.08 53 1001.3
20260504213059 11 187 0.0 0.0 0.00 0.20 0.08 54 1001.3
20260504211559 11 187 0.0 0.0 0.00 0.20 0.08 53 1001.0
20260504210110 12 187 0.0 0.0 0.00 0.20 0.08 52 1000.7
20260504204604 11 187 0.0 0.0 0.00 0.20 0.08 55 1000.4
20260504203103 11 187 0.0 0.0 0.00 0.20 0.08 58 1000.2
20260504201609 11 187 0.0 0.0 0.00 0.20 0.08 61 999.8
20260504194609 12 187 0.0 0.0 0.00 0.20 0.08 66 999.2
20260504193058 10 186 0.0 0.0 0.00 0.20 0.08 71 999.1
20260504191559 10 186 0.0 0.0 0.00 0.20 0.08 73 999.0
20260504190128 10 186 0.0 0.0 0.00 0.20 0.08 74 998.6
20260504184600 9 186 0.0 0.0 0.00 0.20 0.08 77 998.5
20260504183059 8 186 0.0 0.0 0.00 0.20 0.08 77 998.2
20260504181603 8 186 0.0 0.0 0.00 0.20 0.08 81 998.0
20260504180159 7 186 0.0 0.0 0.00 0.20 0.08 82 997.9
20260504174600 7 186 0.0 0.0 0.00 0.20 0.08 82 997.6
20260504173118 7 186 0.0 0.0 0.00 0.20 0.08 84 997.4
20260504171558 7 186 0.0 0.0 0.00 0.20 0.08 84 997.0
20260504140119 6 186 0.0 0.0 0.03 0.20 0.08 84 991.4
20260504120113 4 188 0.0 19.3 0.00 0.18 0.05 86 986.1